Lancaster, PA

11:07 AM EDT on October 20, 2019 (GMT -0400)
Lancaster

Weather History for KLNS - September, 2019

Change the Weather History Date:

Monday, September 23, 2019

  Actual Average Record
Temperature  
Mean Temperature 78 °F -  
Max Temperature 93 °F 74 °F 96 °F (1980)
Min Temperature 64 °F 51 °F 37 °F (1983)
Cooling Degree Days 12    
Growing Degree Days 28 (Base 50)    
Moisture  
Dew Point 63 °F    
Average Humidity 69    
Maximum Humidity 93    
Minimum Humidity 32    
Precipitation  
Precipitation 0.02 in - - ()
Sea Level Pressure  
Sea Level Pressure 29.89 in    
Wind  
Wind Speed 4 mph (West)    
Max Wind Speed 17 mph    
Max Gust Speed 21 mph    
Visibility 8 miles    
Events Rain    
Averages and records for this station are not official NWS values.
T = Trace of Precipitation, MM = Missing Value Source: NWS Daily Summary

Daily Weather History Graph

Daily Weather History Graph

Search for Another Location

Airport or City:

Astronomy

Sep. 23, 2019 Rise Set
Actual Time 6:53 AM EDT 7:01 PM EDT
Civil Twilight 6:26 AM EDT 7:28 PM EDT
Nautical Twilight 5:54 AM EDT 7:59 PM EDT
Astronomical Twilight 5:22 AM EDT 8:31 PM EDT
Moon 12:34 AM EDT (9/23) 3:52 PM EDT (9/23)
Length of Visible Light 13h 01m
Length of Day
12h 07m
Waning Crescent, 33% of the Moon is Illuminated
Sep 23
Waning Crescent
Sep 28
New
Oct 5
First Quarter
Oct 13
Full
Oct 21
Last Quarter

Hourly Weather History & Observations

Time (EDT) Temp. Heat Index Dew Point Humidity Pressure Visibility Wind Dir Wind Speed Gust Speed Precip Events Conditions
12:53 AM 71.1 °F - 64.0 °F 78% 29.99 in 10.0 mi East 3.5 mph - N/A   Clear
1:53 AM 70.0 °F - 64.0 °F 81% 29.97 in 10.0 mi Calm Calm - N/A   Clear
2:53 AM 69.1 °F - 64.0 °F 84% 29.96 in 9.0 mi Calm Calm - N/A   Clear
3:53 AM 68.0 °F - 64.0 °F 87% 29.95 in 8.0 mi Calm Calm - N/A   Clear
4:53 AM 66.9 °F - 64.0 °F 90% 29.94 in 5.0 mi East 3.5 mph - N/A   Clear
5:14 AM 64.9 °F - 63.0 °F 93% 29.94 in 1.8 mi ESE 3.5 mph - N/A   Clear
5:33 AM 66.0 °F - 63.0 °F 90% 29.94 in 2.0 mi Calm Calm - N/A   Clear
5:44 AM 66.0 °F - 63.0 °F 90% 29.94 in 4.0 mi East 3.5 mph - N/A   Clear
5:53 AM 66.0 °F - 63.0 °F 90% 29.93 in 3.0 mi ESE 3.5 mph - N/A   Clear
6:12 AM 66.0 °F - 63.0 °F 90% 29.94 in 1.8 mi Calm Calm - N/A   Clear
7:53 AM 69.1 °F - 64.9 °F 87% 29.95 in 5.0 mi Calm Calm - N/A   Clear
8:53 AM 73.9 °F - 66.9 °F 79% 29.94 in 7.0 mi Calm Calm - N/A   Clear
9:53 AM 79.0 °F - 64.9 °F 62% 29.94 in 10.0 mi West 4.6 mph - N/A   Clear
10:53 AM 84.0 °F 86.3 °F 66.0 °F 55% 29.91 in 10.0 mi Variable 6.9 mph - N/A   Clear
11:53 AM 90.0 °F 90.0 °F 61.0 °F 38% 29.89 in 10.0 mi West 11.5 mph - N/A   Clear
12:53 PM 90.0 °F 89.1 °F 59.0 °F 35% 29.87 in 10.0 mi SW 11.5 mph - N/A   Clear
1:53 PM 89.1 °F 88.2 °F 59.0 °F 36% 29.84 in 10.0 mi West 12.7 mph - N/A   Scattered Clouds
2:53 PM 91.9 °F 90.8 °F 57.9 °F 32% 29.82 in 10.0 mi West 17.3 mph 20.7 mph N/A   Scattered Clouds
3:53 PM 89.1 °F 88.0 °F 57.9 °F 35% 29.80 in 10.0 mi West 16.1 mph - N/A   Scattered Clouds
4:53 PM 82.9 °F 84.0 °F 63.0 °F 51% 29.81 in 10.0 mi West 11.5 mph - N/A   Overcast
5:53 PM 82.0 °F 83.1 °F 63.0 °F 52% 29.81 in 10.0 mi West 10.4 mph - N/A   Overcast
6:53 PM 81.0 °F 82.5 °F 64.0 °F 56% 29.80 in 10.0 mi WNW 6.9 mph - N/A   Overcast
7:53 PM 78.1 °F - 64.0 °F 62% 29.80 in 10.0 mi WNW 6.9 mph - N/A   Overcast
8:53 PM 75.0 °F - 66.9 °F 76% 29.81 in 9.0 mi WNW 6.9 mph - 0.02 in Rain Light Rain
9:53 PM 73.9 °F - 68.0 °F 82% 29.82 in 10.0 mi West 3.5 mph - 0.00 in   Mostly Cloudy
10:53 PM 73.9 °F - 64.9 °F 73% 29.82 in 10.0 mi West 11.5 mph - N/A   Clear
11:53 PM 72.0 °F - 64.0 °F 76% 29.82 in 10.0 mi WNW 6.9 mph - N/A   Clear